• In United Kingdom
  • List of Countries
  • For 7 days
  • Water Temperature
  • Satellite Maps
  • Weather Map
  • Weather Widgets
  • user-avatar
    Login

    Hourly Weather Eisenstadt

    Today, 18 August, Friday

    Time Temperature Precipitation Wind Pressure Humidity
    00:00 +21°C° 0 mm 1 mps 725 mmHg 63%
    01:00 +21°C° 0 mm 1 mps 725 mmHg 67%
    02:00 +21°C° 0 mm 1 mps 725 mmHg 68%
    03:00 +20°C° 0 mm 1 mps 725 mmHg 70%
    04:00 +20°C° 0 mm 1 mps 724 mmHg 71%
    05:00 +21°C° 0 mm 1 mps 725 mmHg 68%
    06:00 +23°C° 0 mm 1 mps 725 mmHg 65%
    07:00 +24°C° 0 mm 1 mps 725 mmHg 62%
    08:00 +26°C° 0.1 mm 1 mps 725 mmHg 56%
    09:00 +28°C° 0.1 mm 1 mps 725 mmHg 50%
    10:00 +30°C° 0.1 mm 1 mps 725 mmHg 44%
    11:00 +31°C° 0.1 mm 2 mps 725 mmHg 41%
    12:00 +32°C° 0.1 mm 2 mps 725 mmHg 38%
    13:00 +34°C° 0.1 mm 3 mps 724 mmHg 34%
    14:00 +34°C° 0 mm 3 mps 724 mmHg 34%
    15:00 +34°C° 0 mm 3 mps 723 mmHg 33%
    16:00 +34°C° 0 mm 3 mps 723 mmHg 33%
    17:00 +31°C° 0 mm 3 mps 722 mmHg 39%
    18:00 +29°C° 0 mm 3 mps 722 mmHg 44%
    19:00 +27°C° 0 mm 2 mps 722 mmHg 50%
    20:00 +26°C° 0 mm 2 mps 722 mmHg 52%
    21:00 +25°C° 0 mm 2 mps 721 mmHg 55%
    22:00 +24°C° 0 mm 2 mps 721 mmHg 57%
    23:00 +23°C° 0 mm 2 mps 721 mmHg 58%

    Tomorrow, 19 August, Saturday

    Time Temperature Precipitation Wind Pressure Humidity
    00:00 +23°C° 0 mm 2 mps 721 mmHg 60%
    01:00 +21°C° 0 mm 2 mps 721 mmHg 61%
    02:00 +21°C° 0 mm 2 mps 721 mmHg 64%
    03:00 +20°C° 0 mm 2 mps 721 mmHg 67%
    04:00 +20°C° 0 mm 2 mps 721 mmHg 70%
    05:00 +20°C° 0 mm 3 mps 722 mmHg 70%
    06:00 +21°C° 0 mm 4 mps 722 mmHg 71%
    07:00 +21°C° 0 mm 5 mps 723 mmHg 72%
    08:00 +22°C° 0.1 mm 5 mps 723 mmHg 67%
    09:00 +23°C° 0.1 mm 5 mps 723 mmHg 62%
    10:00 +24°C° 0.1 mm 6 mps 724 mmHg 58%
    11:00 +23°C° 0.5 mm 6 mps 724 mmHg 60%
    12:00 +22°C° 0.5 mm 6 mps 723 mmHg 62%
    13:00 +21°C° 0.5 mm 6 mps 723 mmHg 64%
    14:00 +20°C° 0.4 mm 6 mps 723 mmHg 67%
    15:00 +19°C° 0.4 mm 6 mps 723 mmHg 69%
    16:00 +19°C° 0.4 mm 6 mps 723 mmHg 71%
    17:00 +17°C° 1.5 mm 5 mps 724 mmHg 76%
    18:00 +16°C° 1.5 mm 5 mps 724 mmHg 81%
    19:00 +15°C° 1.5 mm 4 mps 724 mmHg 85%
    20:00 +15°C° 0.5 mm 4 mps 724 mmHg 86%
    21:00 +15°C° 0.5 mm 4 mps 725 mmHg 86%
    22:00 +15°C° 0.5 mm 4 mps 725 mmHg 86%
    23:00 +14°C° 0.4 mm 3 mps 725 mmHg 87%

    Day after tomorrow, 20 August, Sunday

    Time Temperature Precipitation Wind Pressure Humidity
    00:00 +14°C° 0.4 mm 3 mps 725 mmHg 89%
    01:00 +14°C° 0.4 mm 3 mps 725 mmHg 90%
    02:00 +14°C° 0.3 mm 3 mps 725 mmHg 90%
    03:00 +14°C° 0.3 mm 3 mps 724 mmHg 90%
    04:00 +13°C° 0.3 mm 3 mps 724 mmHg 89%
    05:00 +14°C° 0 mm 3 mps 725 mmHg 86%
    06:00 +14°C° 0 mm 4 mps 725 mmHg 83%
    07:00 +14°C° 0 mm 4 mps 725 mmHg 80%
    08:00 +16°C° 0 mm 5 mps 725 mmHg 69%
    09:00 +19°C° 0 mm 5 mps 725 mmHg 57%
    10:00 +20°C° 0 mm 6 mps 726 mmHg 46%
    11:00 +21°C° 0 mm 6 mps 726 mmHg 44%
    12:00 +22°C° 0 mm 6 mps 725 mmHg 41%
    13:00 +23°C° 0 mm 6 mps 725 mmHg 39%
    14:00 +23°C° 0 mm 6 mps 725 mmHg 40%
    15:00 +23°C° 0 mm 5 mps 725 mmHg 40%
    16:00 +23°C° 0 mm 5 mps 725 mmHg 41%
    17:00 +21°C° 0 mm 4 mps 725 mmHg 47%
    18:00 +19°C° 0 mm 4 mps 725 mmHg 53%
    19:00 +18°C° 0 mm 3 mps 725 mmHg 59%
    20:00 +17°C° 0 mm 3 mps 726 mmHg 62%
    21:00 +16°C° 0 mm 3 mps 726 mmHg 65%
    22:00 +14°C° 0 mm 3 mps 726 mmHg 69%
    23:00 +14°C° 0 mm 3 mps 726 mmHg 70%

    21 August, Monday

    Time Temperature Precipitation Wind Pressure Humidity
    00:00 +13°C° 0 mm 3 mps 726 mmHg 72%
    01:00 +13°C° 0 mm 3 mps 726 mmHg 74%
    02:00 +12°C° 0 mm 3 mps 726 mmHg 74%
    03:00 +12°C° 0 mm 3 mps 726 mmHg 75%
    04:00 +12°C° 0 mm 3 mps 726 mmHg 75%
    05:00 +13°C° 0 mm 3 mps 726 mmHg 70%
    06:00 +14°C° 0 mm 4 mps 726 mmHg 65%
    07:00 +15°C° 0 mm 4 mps 726 mmHg 60%
    08:00 +16°C° 0 mm 5 mps 726 mmHg 54%
    09:00 +19°C° 0 mm 5 mps 726 mmHg 47%
    10:00 +20°C° 0 mm 5 mps 726 mmHg 41%
    11:00 +21°C° 0 mm 5 mps 726 mmHg 39%
    12:00 +22°C° 0 mm 5 mps 726 mmHg 37%
    13:00 +23°C° 0 mm 5 mps 726 mmHg 35%
    14:00 +22°C° 0 mm 5 mps 725 mmHg 36%
    15:00 +22°C° 0 mm 5 mps 725 mmHg 37%
    16:00 +22°C° 0 mm 5 mps 725 mmHg 38%
    17:00 +20°C° 0 mm 4 mps 725 mmHg 44%
    18:00 +19°C° 0 mm 3 mps 725 mmHg 50%
    19:00 +17°C° 0 mm 3 mps 725 mmHg 57%
    20:00 +16°C° 0 mm 3 mps 725 mmHg 60%
    21:00 +15°C° 0 mm 2 mps 726 mmHg 64%
    22:00 +14°C° 0 mm 2 mps 726 mmHg 68%
    23:00 +14°C° 0 mm 2 mps 726 mmHg 70%

    22 August, Tuesday

    Time Temperature Precipitation Wind Pressure Humidity
    00:00 +13°C° 0 mm 2 mps 726 mmHg 72%
    01:00 +13°C° 0 mm 2 mps 726 mmHg 74%
    02:00 +13°C° 0 mm 2 mps 726 mmHg 75%
    03:00 +12°C° 0 mm 2 mps 726 mmHg 76%
    04:00 +12°C° 0 mm 2 mps 726 mmHg 77%
    05:00 +12°C° 0 mm 3 mps 726 mmHg 72%
    06:00 +13°C° 0 mm 3 mps 726 mmHg 68%
    07:00 +16°C° 0 mm 3 mps 726 mmHg 63%
    08:00 +17°C° 0 mm 3 mps 726 mmHg 57%
    09:00 +19°C° 0 mm 4 mps 726 mmHg 50%
    10:00 +21°C° 0 mm 4 mps 726 mmHg 44%
    11:00 +22°C° 0 mm 4 mps 726 mmHg 41%
    12:00 +23°C° 0 mm 4 mps 726 mmHg 38%
    13:00 +23°C° 0 mm 4 mps 725 mmHg 35%
    14:00 +23°C° 0 mm 4 mps 725 mmHg 36%
    15:00 +23°C° 0 mm 4 mps 725 mmHg 36%
    16:00 +23°C° 0 mm 4 mps 724 mmHg 37%
    17:00 +21°C° 0 mm 3 mps 724 mmHg 44%
    18:00 +19°C° 0 mm 3 mps 724 mmHg 51%
    19:00 +17°C° 0 mm 2 mps 724 mmHg 58%
    20:00 +16°C° 0 mm 2 mps 725 mmHg 62%
    21:00 +15°C° 0 mm 2 mps 725 mmHg 66%
    22:00 +14°C° 0 mm 1 mps 725 mmHg 69%
    23:00 +14°C° 0 mm 1 mps 725 mmHg 71%

    23 August, Wednesday

    Time Temperature Precipitation Wind Pressure Humidity
    00:00 +14°C° 0 mm 1 mps 725 mmHg 73%
    01:00 +13°C° 0 mm 1 mps 725 mmHg 75%
    02:00 +13°C° 0 mm 1 mps 725 mmHg 76%
    03:00 +13°C° 0 mm 1 mps 725 mmHg 77%
    04:00 +12°C° 0 mm 1 mps 725 mmHg 79%
    05:00 +14°C° 0 mm 1 mps 725 mmHg 74%
    06:00 +15°C° 0 mm 1 mps 725 mmHg 70%
    07:00 +16°C° 0 mm 1 mps 725 mmHg 66%
    08:00 +19°C° 0 mm 1 mps 726 mmHg 59%
    09:00 +22°C° 0 mm 1 mps 726 mmHg 51%
    10:00 +24°C° 0 mm 1 mps 726 mmHg 44%
    11:00 +25°C° 0 mm 1 mps 726 mmHg 41%
    12:00 +26°C° 0 mm 1 mps 725 mmHg 37%
    13:00 +27°C° 0 mm 1 mps 725 mmHg 33%
    14:00 +27°C° 0 mm 1 mps 725 mmHg 33%
    15:00 +27°C° 0 mm 1 mps 725 mmHg 32%
    16:00 +27°C° 0 mm 2 mps 724 mmHg 32%
    17:00 +24°C° 0 mm 1 mps 724 mmHg 38%
    18:00 +22°C° 0 mm 1 mps 724 mmHg 44%
    19:00 +20°C° 0 mm 1 mps 724 mmHg 51%
    20:00 +19°C° 0 mm 1 mps 724 mmHg 53%
    21:00 +18°C° 0 mm 1 mps 725 mmHg 55%
    22:00 +16°C° 0 mm 1 mps 725 mmHg 57%
    23:00 +16°C° 0 mm 1 mps 725 mmHg 58%
    Show more